Showing default

AC1-003, 66689

Orbit data source: Space-Track

AC1-003, 66689 is a UK payload satellite in SSO that was launched on Fri, 28 Nov 2025 UTC via an FALCON 9 launch vehicle from the Air Force Western Test Range (AFWTR). Payload-class satellites include a variety of spacecraft equipped with specific instruments for various scientific and technological missions. These include communications satellites like Starlink; space stations such as the ISS; scientific satellites like the Hubble; Earth observation satellites from companies like Planet Labs, Umbra, and HawkEye 360; GPS; miniature CubeSats for education and research; and military/defense satellites.

Loading next visibility...
Identifier
66689, 2025-276Z
Orbit
SSO
Country
Flag of UKUK
Related business
Manufacturer
INSBAE
Mission
Operational Commercial Sigint/Imaging
Bus & Motor
P10, Unknown motor
Mass
140 kg wet, 140 kg dry
Launch date (UTC)
2025-11-28 (9 months ago)
Launch vehicle
FALCON 9
Launch site
Air Force Western Test Range (AFWTR)
Object type
Payload
Rocket body
Debris
Shape & HBR
Trap Box + Cyl, 0.4 m
Radar Cross Section
0.655 m², Medium (>0.1 m² and < 1m²)

Expand to show TLE details & history
Last TLE update: 18 hours ago

TLE from 18 hours ago
0 AC1-003
1 66689U 25276Z   26238.17632330  .00002029  00000-0  10168-3 0  9995
2 66689  97.4155 310.1356 0004215 115.0375 245.1297 15.18484236 41020
Epoch: 2026-08-26T04:13Z
TLE epoch observation values (Epoch: 2026-08-26T04:13:54.333Z)
Latitude
-0.00003°
Longitude
-87.77386°
Altitude
514.731 km
Speed
7.606 km/s
True Right ascension
20h 40m 32s
True Declination
0° 00' 00"
Sunlit
Object was in full shadow at epoch
Visualization orbit readout
Latitude
Unknown
Longitude
Unknown
Altitude
Unknown
Speed
Unknown
Apparent Right ascension
Unknown
Apparent Declination
Unknown
Sunlit
N/A
Visualization observer readout
Local Sidereal Time
13:30:46
Azimuth
Unknown
Elevation
Unknown
Doppler factor
Unknown
Orbital elements
Apogee altitude
510.291 km
Perigee altitude
504.487 km
Semi-major axis
6,885.526 km
Eccentricity
0.00042
Inclination
97.4155°
RAAN
310.1356°
Arg. of periapsis
115.0375°
True anomaly
245.08589°
Mean anomaly
245.1297°
Eccentric anomaly
245.10779°
Mean motion
3.79872 °/min
Orbital period
94.77 mins
BSTAR
0.00010168
Loading maneuver chart data...
Computing Atmospheric mass density...
Loading historical data...
Loading historical data...
Loading historical data...
Loading historical data...
Loading historical data...
Loading historical data...
Loading historical data...

Documentation

Showing up to 5 results
|